Regional Weather Roundup
Issued by NWS Albany, NY

Home | Current Version | Previous Version | Text Only | Print | Product List | Glossary On
Versions: 1 2 3 4 5 6 7 8 9 10 11 12 13 14 15 16 17 18 19 20 21 22 23 24 25 26 27 28 29 30 31 32 33 34 35 36 37 38 39 40 41 42 43 44 45 46 47 48 49 50
000
ASUS41 KALY 231410
RWRALY

NEW YORK STATE HOURLY WEATHER ROUNDUP
NATIONAL WEATHER SERVICE ALBANY NY
1000 AM EDT MON APR 23 2018

NOTE: "FAIR" INDICATES FEW OR NO CLOUDS BELOW 12,000 FEET WITH NO
SIGNIFICANT WEATHER AND/OR NO OBSTRUCTIONS TO VISIBILITY.

NYZ032-033-038>043-046>054-057>066-NYZ062>081-082-084-231500-
EAST


CITY           SKY/WX    TMP DP  RH WIND       PRES   REMARKS
ALBANY         FAIR      53  24  32 VRB5      30.50F
GLENS FALLS    FAIR      49  23  36 CALM      30.50F
POUGHKEEPSIE   FAIR      54  23  30 CALM      30.48S
NEWBURGH       SUNNY     54  23  30 CALM      30.50R
MONTGOMERY     FAIR      55  24  30 CALM      30.48R
WHITE PLAINS   FAIR      55  17  22 E9        30.48R
ISLIP          FAIR      58  24  27 E7        30.47R
NEW YORK CITY  FAIR      53  28  38 NE8       30.49R
CENTRAL PARK   FAIR      56  25  30 E6        30.51R
$$

NYZ005>009-017-018-044>046-055-056-231500-
CENTRAL


CITY           SKY/WX    TMP DP  RH WIND       PRES   REMARKS
FULTON         FAIR      53  24  32 SE5       30.46S
SYRACUSE       FAIR      51  27  39 NE5       30.46F
ROME           FAIR      51  22  31 S5        30.49S
ELMIRA         FAIR      49  28  44 VRB3      30.45F
BINGHAMTON     FAIR      50  21  32 SE7       30.44S
MONTICELLO     FAIR      53  17  24 SE8       30.48R
$$

NYZ026>034-041>043-087-231500-
NORTH


CITY           SKY/WX    TMP DP  RH WIND       PRES   REMARKS
WATERTOWN      FAIR      57  17  21 VRB5      30.45F
FORT DRUM      NOT AVBL
OGDENSBURG     FAIR      57  28  32 S5        30.47S
MASSENA        FAIR      55  29  36 SW5       30.48F
SARANAC LAKE   FAIR      48  17  29 VRB3      30.45F
PLATTSBURGH    FAIR      44  24  45 SE8       30.49S
$$

NYZ001>004-010>016-019>021-085-231500-
WEST


CITY           SKY/WX    TMP DP  RH WIND       PRES   REMARKS
NIAGARA FALLS  FAIR      59  24  26 S7        30.38F
BUFFALO        FAIR      58  23  26 SE8       30.39S
DUNKIRK        FAIR      60  28  29 SE12      30.36F
JAMESTOWN      FAIR      55  27  34 SE12      30.35F
WELLSVILLE     FAIR      55  24  30 VRB7      30.41F
ROCHESTER      FAIR      54  25  32 CALM      30.43S
PENN YAN       FAIR      51  24  34 W5        30.44S
$$

             KEY
       WCI = WIND CHILL INDEX
       VSB = VISIBILITY
       HX  = HEAT INDEX
$$



USA.gov is the U.S. government's official web portal to all federal, state and local government web resources and services.